Weather History for Big Piney, WY

Change the Weather History Date:

Monday, January 28, 2013

  Actual Average Record
Temperature  
Mean Temperature 7 °F 11 °F  
Max Temperature 22 °F 26 °F 39 °F (1981)
Min Temperature -9 °F -2 °F -23 °F (1985)
Degree Days  
Heating Degree Days 58 54  
Month to date heating degree days 1601 1512  
Since 1 July heating degree days 5323 5951  
Cooling Degree Days 0 0  
Month to date cooling degree days 0 0  
Year to date cooling degree days 0 0  
Moisture  
Dew Point 1 °F    
Average Humidity 67    
Maximum Humidity 86    
Minimum Humidity 47    
Precipitation  
Precipitation 0.00 in 0.00 in 0.18 in (2009)
Month to date precipitation 0.07 0.28  
Year to date precipitation 0.07 0.28  
Sea Level Pressure  
Sea Level Pressure 29.92 in    
Wind  
Wind Speed 9 mph (North)    
Max Wind Speed 16 mph    
Max Gust Speed 18 mph    
Visibility 10 miles    
Events      
T = Trace of Precipitation, MM = Missing Value Source: NWS Daily Summary

Daily Weather History Graph

Daily Weather History Graph

Search for Another Location

Airport:

Trip Planner

Search our weather history database for the weather conditions in past years. The results will help you decide how hot, cold, wet, or windy it might be!

Date:

Astronomy

Jan. 28, 2013 Rise Set
Actual Time 7:38 AM MST 5:29 PM MST
Civil Twilight 7:08 AM MST 5:59 PM MST
Nautical Twilight 6:34 AM MST 6:33 PM MST
Astronomical Twilight 6:00 AM MST 7:06 PM MST
Moon 7:31 PM MST (1/28) 8:02 AM MST (1/28)
Length of Visible Light 10h 51m
Length of Day
9h 51m
Full, 97% of the Moon is Illuminated
Jan 28
Full
Feb 3
Last Quarter
Feb 10
New
Feb 17
First Quarter
Feb 25
Full

Hourly Weather History & Observations

Time (MST) Temp. Windchill Dew Point Humidity Pressure Visibility Wind Dir Wind Speed Gust Speed Precip Events Conditions
12:53 AM 12.0 °F -1.3 °F 6.1 °F 77% 29.78 in 10.0 mi North 10.4 mph - N/A   Mostly Cloudy
1:53 AM 12.0 °F -2.0 °F 6.1 °F 77% 29.80 in 10.0 mi North 11.5 mph - N/A   Clear
2:53 AM 10.0 °F -5.2 °F 5.0 °F 80% 29.81 in 10.0 mi North 12.7 mph - N/A   Clear
3:53 AM 12.0 °F -2.0 °F 5.0 °F 73% 29.79 in 10.0 mi North 11.5 mph - N/A   Mostly Cloudy
4:53 AM 10.0 °F -4.5 °F 3.9 °F 76% 29.83 in 10.0 mi North 11.5 mph - N/A   Clear
5:53 AM 3.0 °F -8.0 °F -0.9 °F 84% 29.88 in 10.0 mi NNW 5.8 mph - N/A   Clear
6:53 AM 6.1 °F -9.5 °F -0.0 °F 76% 29.88 in 10.0 mi North 11.5 mph - N/A   Mostly Cloudy
7:53 AM 7.0 °F - -0.0 °F 73% 29.90 in 10.0 mi Calm Calm - N/A   Overcast
8:53 AM 5.0 °F -5.6 °F -0.0 °F 80% 29.94 in 10.0 mi NNW 5.8 mph - N/A   Overcast
9:53 AM 10.9 °F 1.4 °F 3.9 °F 73% 29.94 in 10.0 mi NNW 5.8 mph - N/A   Clear
10:53 AM 12.9 °F 6.9 °F 5.0 °F 71% 29.95 in 10.0 mi SSE 3.5 mph - N/A   Clear
11:53 AM 19.9 °F 12.1 °F 5.0 °F 52% 29.90 in 10.0 mi North 5.8 mph - N/A   Clear
12:53 PM 21.0 °F 9.3 °F 5.0 °F 50% 29.87 in 10.0 mi North 11.5 mph - N/A   Clear
1:53 PM 21.9 °F 9.8 °F 7.0 °F 53% 29.86 in 10.0 mi NNW 12.7 mph - N/A   Clear
2:53 PM 21.0 °F 8.6 °F 8.1 °F 57% 29.88 in 10.0 mi NNW 12.7 mph - N/A   Clear
3:53 PM 19.9 °F 8.6 °F 7.0 °F 57% 29.89 in 10.0 mi North 10.4 mph - N/A   Clear
4:53 PM 16.0 °F 3.6 °F 5.0 °F 62% 29.92 in 10.0 mi NNW 10.4 mph - N/A   Clear
5:53 PM 7.0 °F -9.1 °F -0.0 °F 73% 30.02 in 10.0 mi North 12.7 mph - N/A   Clear
6:53 PM 6.1 °F -9.5 °F -2.0 °F 69% 30.03 in 10.0 mi North 11.5 mph - N/A   Clear
7:53 PM -0.9 °F -17.4 °F -5.1 °F 83% 30.06 in 10.0 mi NW 10.4 mph - N/A   Clear
8:53 PM -0.0 °F -15.3 °F -5.1 °F 79% 30.05 in 10.0 mi North 9.2 mph - N/A   Clear
9:53 PM -7.1 °F -15.9 °F -11.0 °F 83% 30.05 in 10.0 mi ENE 3.5 mph - N/A   Clear
10:53 PM -6.0 °F -20.1 °F -9.0 °F 87% 30.03 in 10.0 mi West 6.9 mph - N/A   Clear
11:53 PM -8.0 °F -19.2 °F -11.9 °F 83% 29.99 in 10.0 mi ENE 4.6 mph - N/A   Partly Cloudy